STARLINK-1677, 46576

Orbit data source: Space-Track

STARLINK-1677, 46576 is a payload satellite owned by SpaceX/Seattle (US) in LEO that was launched on Tue, 06 Oct 2020 UTC via an FALCON 9 launch vehicle from the Air Force Eastern Test Range (AFETR). Payload-class satellites include a variety of spacecraft equipped with specific instruments for various scientific and technological missions. These include communications satellites like Starlink; space stations such as the ISS; scientific satellites like the Hubble; Earth observation satellites from companies like Planet Labs, Umbra, and HawkEye 360; GPS; miniature CubeSats for education and research; and military/defense satellites.

Not visible in the next 10 days
Identifier
46576, 2020-070AW
Orbit
LEO
Country
Flag of USUS
Related business
Manufacturer
SpaceX/Seattle
Mission
Partially operational Commercial Communications
Bus & Motor
STARLINK, Unknown motor
Mass
260 kg wet, ~248 kg dry
Launch date (UTC)
2020-10-06 (6 years ago)
Launch vehicle
FALCON 9
Launch site
Air Force Eastern Test Range (AFETR)
Object type
Payload
Rocket body
Debris
Shape & HBR
Box + 1 Pan, 10.1 m
Radar Cross Section
13.562 m², Large (>1 m²)

Expand to show TLE details & history
Last TLE update: 19 hours ago

TLE from 19 hours ago
0 STARLINK-1677
1 46576U 20070AW  26168.87154661  .01124081  84109-3  91598-3 0  9995
2 46576  53.0188 340.5509 0011183 285.2711  74.7088 16.13549983316093
Epoch: 2026-06-17T20:55Z
TLE epoch observation values (Epoch: 2026-06-17T20:55:01.627Z)
Latitude
0.00005°
Longitude
120.67115°
Altitude
236.096 km
Speed
7.768 km/s
True Right ascension
22h 42m 12s
True Declination
0° 00' 00"
Sunlit
Object was in daylight at epoch
Visualization orbit readout
Latitude
Unknown
Longitude
Unknown
Altitude
Unknown
Speed
Unknown
Apparent Right ascension
Unknown
Apparent Declination
Unknown
Sunlit
N/A
Visualization observer readout
Local Sidereal Time
03:06:39
Azimuth
Unknown
Elevation
Unknown
Doppler factor
Unknown
Orbital elements
Apogee altitude
244.81 km
Perigee altitude
230.013 km
Semi-major axis
6,615.549 km
Eccentricity
0.00112
Inclination
53.0188°
RAAN
340.5509°
Arg. of periapsis
285.2711°
True anomaly
74.83246°
Mean anomaly
74.7088°
Eccentric anomaly
74.77062°
Mean motion
4.03361 °/min
Orbital period
89.25 mins
BSTAR
0.00091598
Loading maneuver chart data...
Computing Atmospheric mass density...

Documentation

Showing up to 5 results
|